| time (UTC) | temp F | wind direction | speed MPH | gust MPH | rain 1hr in | rain 24hr in | rain mn in | humidity % | barometer mb |
| 20260905063626 | 72 | 54 | 0.0 | 1.0 | 0.00 | 0.01 | 0.00 | 92 | 1012.8 |
| 20260905063126 | 72 | 82 | 0.0 | 1.0 | 0.00 | 0.01 | 0.00 | 92 | 1012.9 |
| 20260905062914 | 72 | 143 | 0.0 | 1.0 | 0.00 | 0.01 | 0.00 | 92 | 1012.9 |
| 20260905062121 | 72 | 54 | 0.0 | 0.0 | 0.00 | 0.01 | 0.00 | 92 | 1013.1 |
| 20260905061621 | 72 | 11 | 0.0 | 1.0 | 0.00 | 0.01 | 0.00 | 92 | 1013.2 |
| 20260905061122 | 72 | 54 | 0.0 | 1.0 | 0.00 | 0.01 | 0.00 | 92 | 1013.2 |
| 20260905060622 | 72 | 54 | 0.0 | 1.0 | 0.00 | 0.01 | 0.00 | 92 | 1013.3 |
| 20260905060412 | 72 | 100 | 0.0 | 1.0 | 0.00 | 0.01 | 0.00 | 92 | 1013.3 |
| 20260905055621 | 72 | 11 | 0.0 | 1.0 | 0.00 | 0.01 | 0.00 | 92 | 1013.3 |
| 20260905055121 | 72 | 11 | 0.0 | 1.0 | 0.00 | 0.01 | 0.00 | 92 | 1013.4 |
| 20260905054923 | 72 | 54 | 1.0 | 3.0 | 0.00 | 0.01 | 0.00 | 92 | 1013.3 |
| 20260905054410 | 72 | 260 | 1.0 | 3.0 | 0.00 | 0.01 | 0.00 | 92 | 1013.5 |
| 20260905053911 | 72 | 279 | 0.0 | 1.0 | 0.00 | 0.01 | 0.00 | 92 | 1013.4 |
| 20260905053109 | 72 | 54 | 0.0 | 1.0 | 0.00 | 0.01 | 0.00 | 92 | 1013.6 |
| 20260905052859 | 73 | 54 | 0.0 | 1.0 | 0.00 | 0.01 | 0.00 | 92 | 1013.5 |
| 20260905052402 | 73 | 54 | 0.0 | 1.0 | 0.00 | 0.01 | 0.00 | 92 | 1013.5 |
| 20260905051608 | 73 | 11 | 0.0 | 1.0 | 0.00 | 0.01 | 0.00 | 92 | 1013.6 |
| 20260905051104 | 73 | 54 | 0.0 | 3.0 | 0.00 | 0.01 | 0.00 | 92 | 1013.7 |
| 20260905050602 | 73 | 279 | 0.0 | 3.0 | 0.00 | 0.01 | 0.00 | 92 | 1013.8 |
| 20260905050104 | 73 | 279 | 0.0 | 1.0 | 0.00 | 0.01 | 0.00 | 92 | 1013.9 |
| 20260905045603 | 73 | 54 | 0.0 | 1.0 | 0.00 | 0.01 | 0.00 | 92 | 1013.8 |
| 20260905045102 | 73 | 54 | 0.0 | 1.0 | 0.00 | 0.01 | 0.00 | 92 | 1013.9 |
| 20260905044602 | 73 | 11 | 0.0 | 3.0 | 0.00 | 0.01 | 0.00 | 92 | 1013.9 |
| 20260905044102 | 73 | 54 | 0.0 | 3.0 | 0.00 | 0.01 | 0.00 | 92 | 1013.8 |
| 20260905043603 | 73 | 54 | 0.0 | 3.0 | 0.00 | 0.01 | 0.00 | 91 | 1013.9 |
| 20260905043102 | 73 | 54 | 0.0 | 3.0 | 0.00 | 0.01 | 0.00 | 91 | 1013.9 |
| 20260905042601 | 73 | 286 | 0.0 | 3.0 | 0.00 | 0.01 | 0.00 | 91 | 1013.9 |
| 20260905042103 | 73 | 100 | 0.0 | 3.0 | 0.00 | 0.01 | 0.00 | 91 | 1014.0 |
| 20260905041851 | 73 | 215 | 0.0 | 3.0 | 0.00 | 0.01 | 0.00 | 91 | 1013.9 |
| 20260905041357 | 73 | 178 | 1.0 | 3.0 | 0.00 | 0.01 | 0.00 | 91 | 1013.8 |
| 20260905040852 | 74 | 188 | 1.0 | 3.0 | 0.00 | 0.01 | 0.00 | 91 | 1013.8 |
| 20260905040054 | 74 | 143 | 1.0 | 3.0 | 0.00 | 0.01 | 0.00 | 91 | 1013.9 |
| 20260905035843 | 74 | 100 | 0.0 | 1.0 | 0.00 | 0.01 | 0.01 | 91 | 1014.0 |
| 20260905035049 | 74 | 54 | 0.0 | 3.0 | 0.00 | 0.03 | 0.01 | 91 | 1014.1 |
| 20260905034546 | 74 | 54 | 0.0 | 3.0 | 0.00 | 0.15 | 0.01 | 91 | 1014.1 |
| 20260905034142 | 74 | 234 | 0.0 | 3.0 | 0.00 | 0.49 | 0.01 | 91 | 1014.4 |
| 20260905034121 | 74 | 11 | 0.0 | 3.0 | 0.00 | 0.38 | 0.01 | 91 | 1014.3 |
| 20260905033048 | 74 | 234 | 0.0 | 3.0 | 0.00 | 0.49 | 0.01 | 91 | 1014.4 |
| 20260905032547 | 74 | 289 | 1.0 | 3.0 | 0.00 | 0.49 | 0.01 | 91 | 1014.4 |
| 20260905032048 | 74 | 54 | 1.0 | 3.0 | 0.00 | 0.49 | 0.01 | 91 | 1014.3 |
| 20260905031848 | 74 | 248 | 1.0 | 3.0 | 0.00 | 0.49 | 0.01 | 91 | 1014.4 |
| 20260905031133 | 74 | 143 | 0.0 | 1.0 | 0.00 | 0.49 | 0.01 | 91 | 1014.5 |
| 20260905031116 | 74 | 188 | 0.0 | 1.0 | 0.00 | 0.49 | 0.01 | 91 | 1014.5 |
| 20260905030050 | 74 | 11 | 0.0 | 1.0 | 0.00 | 0.49 | 0.01 | 91 | 1014.3 |
| 20260905025547 | 74 | 11 | 0.0 | 1.0 | 0.00 | 0.49 | 0.01 | 91 | 1014.2 |
| 20260905025046 | 74 | 11 | 0.0 | 1.0 | 0.00 | 0.49 | 0.01 | 91 | 1014.2 |
| 20260905024841 | 74 | 100 | 0.0 | 1.0 | 0.00 | 0.49 | 0.01 | 90 | 1014.4 |
| 20260905024049 | 75 | 54 | 0.0 | 1.0 | 0.00 | 0.49 | 0.01 | 90 | 1014.3 |
| 20260905023833 | 75 | 54 | 0.0 | 1.0 | 0.00 | 0.49 | 0.01 | 90 | 1014.4 |
| 20260905023042 | 75 | 54 | 1.0 | 3.0 | 0.00 | 0.49 | 0.01 | 90 | 1014.4 |
| 20260905022539 | 75 | 100 | 1.0 | 3.0 | 0.00 | 0.49 | 0.01 | 90 | 1014.5 |
| 20260905022040 | 75 | 198 | 1.0 | 3.0 | 0.00 | 0.49 | 0.01 | 90 | 1014.3 |
| 20260905021538 | 75 | 188 | 0.0 | 1.0 | 0.00 | 0.49 | 0.01 | 90 | 1014.1 |
| 20260905021037 | 75 | 11 | 0.0 | 1.0 | 0.00 | 0.49 | 0.01 | 90 | 1013.9 |
| 20260905020537 | 75 | 100 | 0.0 | 1.0 | 0.00 | 0.49 | 0.01 | 90 | 1014.1 |
| 20260905020038 | 75 | 11 | 0.0 | 1.0 | 0.00 | 0.49 | 0.01 | 89 | 1014.0 |
| 20260905015537 | 75 | 54 | 0.0 | 1.0 | 0.00 | 0.49 | 0.01 | 89 | 1014.0 |
| 20260905015038 | 76 | 54 | 0.0 | 1.0 | 0.00 | 0.49 | 0.01 | 89 | 1014.1 |
| 20260905014534 | 76 | 100 | 0.0 | 3.0 | 0.00 | 0.49 | 0.01 | 89 | 1014.1 |
| 20260905014032 | 76 | 54 | 0.0 | 3.0 | 0.00 | 0.49 | 0.01 | 89 | 1013.9 |
| 20260905013532 | 76 | 89 | 0.0 | 3.0 | 0.00 | 0.49 | 0.01 | 89 | 1013.7 |
| 20260905013034 | 76 | 117 | 0.0 | 1.0 | 0.00 | 0.49 | 0.01 | 89 | 1013.7 |
| 20260905012534 | 76 | 100 | 0.0 | 1.0 | 0.00 | 0.49 | 0.01 | 88 | 1013.8 |
| 20260905012033 | 76 | 54 | 0.0 | 1.0 | 0.00 | 0.49 | 0.01 | 88 | 1013.6 |
| 20260905011533 | 76 | 82 | 0.0 | 3.0 | 0.00 | 0.49 | 0.01 | 88 | 1013.5 |
| 20260905011035 | 76 | 89 | 1.0 | 3.0 | 0.00 | 0.49 | 0.01 | 88 | 1013.4 |
| 20260905010533 | 76 | 171 | 1.0 | 1.0 | 0.00 | 0.49 | 0.01 | 88 | 1013.3 |
| 20260905010033 | 76 | 143 | 0.0 | 1.0 | 0.00 | 0.49 | 0.01 | 88 | 1013.1 |
| 20260905005535 | 77 | 100 | 0.0 | 1.0 | 0.00 | 0.49 | 0.01 | 88 | 1013.1 |
| 20260905005032 | 77 | 82 | 0.0 | 3.0 | 0.00 | 0.49 | 0.01 | 88 | 1013.1 |
| 20260905004534 | 77 | 54 | 1.0 | 3.0 | 0.00 | 0.49 | 0.01 | 88 | 1013.2 |
| 20260905004033 | 77 | 82 | 0.0 | 3.0 | 0.00 | 0.49 | 0.01 | 88 | 1013.2 |
| 20260905003532 | 77 | 54 | 0.0 | 1.0 | 0.00 | 0.49 | 0.01 | 87 | 1013.3 |
| 20260905003034 | 77 | 54 | 1.0 | 3.0 | 0.00 | 0.49 | 0.01 | 87 | 1013.3 |
| 20260905002534 | 77 | 11 | 1.0 | 3.0 | 0.00 | 0.49 | 0.01 | 87 | 1013.2 |
| 20260905002032 | 78 | 82 | 0.0 | 1.0 | 0.00 | 0.49 | 0.01 | 87 | 1013.2 |
| 20260905001821 | 78 | 69 | 0.0 | 1.0 | 0.00 | 0.49 | 0.01 | 87 | 1013.1 |
| 20260905001032 | 78 | 73 | 0.0 | 3.0 | 0.00 | 0.49 | 0.01 | 87 | 1013.0 |
| 20260905000534 | 78 | 100 | 0.0 | 3.0 | 0.00 | 0.49 | 0.01 | 87 | 1013.1 |
| 20260905000033 | 78 | 11 | 0.0 | 1.0 | 0.00 | 0.49 | 0.01 | 87 | 1013.2 |
| 20260904235532 | 78 | 54 | 0.0 | 3.0 | 0.00 | 0.49 | 0.01 | 87 | 1013.2 |
| 20260904235327 | 78 | 143 | 1.0 | 3.0 | 0.00 | 0.49 | 0.01 | 87 | 1013.1 |
| 20260904234534 | 79 | 82 | 1.0 | 3.0 | 0.00 | 0.49 | 0.01 | 87 | 1013.1 |
| 20260904234030 | 79 | 143 | 1.0 | 3.0 | 0.00 | 0.49 | 0.01 | 87 | 1013.3 |
| 20260904233532 | 79 | 100 | 1.0 | 3.0 | 0.00 | 0.49 | 0.01 | 86 | 1013.3 |
| 20260904233031 | 79 | 11 | 1.0 | 5.0 | 0.00 | 0.49 | 0.01 | 86 | 1013.4 |
| 20260904232531 | 79 | 143 | 1.0 | 5.0 | 0.00 | 0.49 | 0.01 | 86 | 1013.4 |
| 20260904232030 | 79 | 117 | 0.0 | 4.0 | 0.00 | 0.49 | 0.01 | 86 | 1013.3 |
| 20260904231531 | 79 | 11 | 0.0 | 3.0 | 0.00 | 0.49 | 0.01 | 86 | 1013.5 |
| 20260904231030 | 79 | 54 | 1.0 | 3.0 | 0.00 | 0.49 | 0.01 | 86 | 1013.4 |
| 20260904230530 | 79 | 143 | 1.0 | 4.0 | 0.00 | 0.49 | 0.01 | 86 | 1013.4 |
| 20260904230030 | 79 | 284 | 1.0 | 5.0 | 0.00 | 0.49 | 0.01 | 86 | 1013.2 |
| 20260904225532 | 80 | 218 | 1.0 | 5.0 | 0.00 | 0.49 | 0.01 | 86 | 1013.3 |
| 20260904225331 | 80 | 11 | 0.0 | 3.0 | 0.00 | 0.49 | 0.01 | 86 | 1013.2 |
| 20260904224532 | 80 | 188 | 1.0 | 3.0 | 0.00 | 0.49 | 0.01 | 86 | 1013.1 |
| 20260904224030 | 80 | 194 | 0.0 | 3.0 | 0.00 | 0.49 | 0.01 | 86 | 1013.2 |
| 20260904223529 | 80 | 100 | 1.0 | 5.0 | 0.00 | 0.49 | 0.01 | 86 | 1013.0 |
| 20260904223030 | 80 | 326 | 1.0 | 5.0 | 0.00 | 0.49 | 0.01 | 85 | 1013.3 |
| 20260904222530 | 80 | 241 | 0.0 | 4.0 | 0.00 | 0.49 | 0.01 | 86 | 1013.4 |
| 20260904222029 | 80 | 326 | 1.0 | 3.0 | 0.00 | 0.49 | 0.01 | 86 | 1013.4 |
| 20260904221529 | 80 | 100 | 1.0 | 4.0 | 0.00 | 0.49 | 0.01 | 85 | 1013.4 |
| 20260904221029 | 80 | 143 | 1.0 | 5.0 | 0.00 | 0.49 | 0.01 | 85 | 1013.5 |
| 20260904220824 | 80 | 225 | 1.0 | 5.0 | 0.00 | 0.49 | 0.01 | 86 | 1013.7 |
| 20260904220029 | 80 | 196 | 1.0 | 5.0 | 0.00 | 0.49 | 0.01 | 86 | 1013.8 |
| 20260904215531 | 81 | 186 | 1.0 | 5.0 | 0.00 | 0.49 | 0.01 | 86 | 1013.8 |
| 20260904215030 | 81 | 178 | 1.0 | 4.0 | 0.00 | 0.49 | 0.01 | 86 | 1013.8 |
| 20260904214531 | 81 | 162 | 1.0 | 4.0 | 0.00 | 0.49 | 0.01 | 86 | 1013.8 |
| 20260904214030 | 81 | 86 | 0.0 | 3.0 | 0.01 | 0.49 | 0.01 | 85 | 1013.9 |
| 20260904213531 | 81 | 37 | 1.0 | 3.0 | 0.01 | 0.49 | 0.01 | 85 | 1013.9 |
| 20260904213025 | 81 | 143 | 1.0 | 5.0 | 0.01 | 0.49 | 0.01 | 84 | 1013.8 |
| 20260904212518 | 82 | 181 | 2.0 | 7.0 | 0.01 | 0.49 | 0.01 | 82 | 1013.9 |
| 20260904212013 | 82 | 234 | 2.0 | 7.0 | 0.01 | 0.49 | 0.01 | 83 | 1014.0 |
| 20260904211508 | 82 | 178 | 1.0 | 4.0 | 0.01 | 0.49 | 0.01 | 83 | 1014.1 |
| 20260904211002 | 83 | 143 | 1.0 | 3.0 | 0.01 | 0.49 | 0.01 | 82 | 1013.9 |
| 20260904210501 | 83 | 116 | 0.0 | 3.0 | 0.01 | 0.49 | 0.01 | 80 | 1014.0 |
| 20260904210002 | 83 | 110 | 0.0 | 1.0 | 0.01 | 0.49 | 0.01 | 80 | 1014.1 |
| 20260904205851 | 85 | 187 | 0.0 | 1.0 | 0.01 | 0.49 | 0.01 | 76 | 1014.0 |
| 20260904205846 | 84 | 143 | 0.0 | 1.0 | 0.01 | 0.49 | 0.01 | 78 | 1014.1 |
| 20260904204501 | 85 | 188 | 0.0 | 3.0 | 0.01 | 0.49 | 0.00 | 72 | 1014.1 |
| 20260904204002 | 86 | 54 | 1.0 | 4.0 | 0.00 | 0.48 | 0.00 | 71 | 1014.1 |
| 20260904203502 | 87 | 279 | 1.0 | 4.0 | 0.00 | 0.48 | 0.00 | 68 | 1014.2 |
| 20260904203001 | 87 | 326 | 1.0 | 5.0 | 0.00 | 0.48 | 0.00 | 67 | 1014.3 |
| 20260904202501 | 88 | 143 | 1.0 | 5.0 | 0.00 | 0.48 | 0.00 | 65 | 1014.1 |
| 20260904202002 | 88 | 270 | 2.0 | 7.0 | 0.00 | 0.48 | 0.00 | 64 | 1014.4 |
| 20260904201801 | 88 | 28 | 2.0 | 8.0 | 0.00 | 0.48 | 0.00 | 63 | 1014.3 |
| 20260904201003 | 88 | 309 | 2.0 | 8.0 | 0.00 | 0.48 | 0.00 | 63 | 1014.4 |
| 20260904200502 | 88 | 234 | 1.0 | 7.0 | 0.00 | 0.48 | 0.00 | 62 | 1014.4 |
| 20260904200005 | 89 | 353 | 1.0 | 3.0 | 0.00 | 0.48 | 0.00 | 63 | 1014.1 |
| 20260904195505 | 89 | 23 | 1.0 | 5.0 | 0.00 | 0.48 | 0.00 | 61 | 1013.9 |
| 20260904195003 | 89 | 37 | 1.0 | 5.0 | 0.00 | 0.48 | 0.00 | 61 | 1014.0 |
| 20260904194750 | 90 | 296 | 2.0 | 7.0 | 0.00 | 0.48 | 0.00 | 61 | 1014.0 |
| 20260904193950 | 90 | 234 | 3.0 | 8.0 | 0.00 | 0.48 | 0.00 | 59 | 1013.8 |
| 20260904193444 | 90 | 281 | 2.0 | 8.0 | 0.00 | 0.48 | 0.00 | 58 | 1013.9 |
| 20260904192945 | 90 | 5 | 2.0 | 11.0 | 0.00 | 0.48 | 0.00 | 58 | 1014.1 |
| 20260904192445 | 90 | 301 | 3.0 | 11.0 | 0.00 | 0.48 | 0.00 | 58 | 1014.0 |
| 20260904191944 | 91 | 143 | 3.0 | 11.0 | 0.00 | 0.48 | 0.00 | 57 | 1014.0 |
| 20260904191443 | 91 | 198 | 2.0 | 7.0 | 0.00 | 0.48 | 0.00 | 57 | 1014.0 |
| 20260904190946 | 90 | 54 | 2.0 | 8.0 | 0.00 | 0.48 | 0.00 | 57 | 1013.9 |
| 20260904190445 | 89 | 196 | 1.0 | 8.0 | 0.00 | 0.48 | 0.00 | 60 | 1013.9 |
| 20260904185947 | 90 | 54 | 1.0 | 5.0 | 0.00 | 0.48 | 0.00 | 60 | 1014.0 |
| 20260904185445 | 90 | 41 | 2.0 | 7.0 | 0.00 | 0.48 | 0.00 | 57 | 1014.3 |
| 20260904184944 | 90 | 251 | 2.0 | 9.0 | 0.00 | 0.48 | 0.00 | 57 | 1014.4 |
| 20260904184444 | 90 | 215 | 3.0 | 12.0 | 0.00 | 0.48 | 0.00 | 60 | 1014.5 |
| 20260904183943 | 90 | 54 | 4.0 | 16.0 | 0.00 | 0.48 | 0.00 | 58 | 1014.6 |
| 20260904183444 | 89 | 312 | 4.0 | 16.0 | 0.00 | 0.48 | 0.00 | 58 | 1014.8 |
| 20260904182945 | 89 | 314 | 4.0 | 14.0 | 0.00 | 0.48 | 0.00 | 57 | 1014.8 |
| 20260904182543 | 89 | 154 | 3.0 | 11.0 | 0.00 | 0.48 | 0.00 | 56 | 1014.8 |
| 20260904182522 | 89 | 289 | 3.0 | 11.0 | 0.00 | 0.48 | 0.00 | 58 | 1014.8 |
| 20260904181440 | 88 | 279 | 3.0 | 19.0 | 0.00 | 0.48 | 0.00 | 59 | 1014.9 |
| 20260904180940 | 89 | 242 | 4.0 | 19.0 | 0.00 | 0.48 | 0.00 | 58 | 1014.9 |
| 20260904180441 | 88 | 263 | 4.0 | 14.0 | 0.00 | 0.48 | 0.00 | 57 | 1015.0 |
| 20260904175939 | 89 | 246 | 3.0 | 14.0 | 0.00 | 0.48 | 0.00 | 55 | 1014.9 |
| 20260904175437 | 89 | 312 | 3.0 | 12.0 | 0.00 | 0.48 | 0.00 | 56 | 1015.0 |
| 20260904174937 | 89 | 162 | 3.0 | 11.0 | 0.00 | 0.48 | 0.00 | 56 | 1014.9 |
| 20260904174437 | 89 | 184 | 3.0 | 9.0 | 0.00 | 0.48 | 0.00 | 59 | 1014.9 |
| 20260904173936 | 88 | 274 | 4.0 | 14.0 | 0.00 | 0.48 | 0.00 | 59 | 1014.9 |
| 20260904173437 | 88 | 271 | 3.0 | 14.0 | 0.00 | 0.48 | 0.00 | 58 | 1014.9 |
| 20260904172936 | 89 | 239 | 2.0 | 9.0 | 0.00 | 0.48 | 0.00 | 58 | 1015.0 |
| 20260904172438 | 88 | 11 | 3.0 | 12.0 | 0.00 | 0.48 | 0.00 | 57 | 1015.0 |
| 20260904171937 | 88 | 241 | 3.0 | 12.0 | 0.00 | 0.48 | 0.00 | 57 | 1015.1 |
| 20260904171439 | 89 | 225 | 2.0 | 9.0 | 0.00 | 0.48 | 0.00 | 58 | 1015.0 |
| 20260904170934 | 88 | 277 | 2.0 | 12.0 | 0.00 | 0.48 | 0.00 | 59 | 1015.2 |
| 20260904170436 | 88 | 21 | 4.0 | 14.0 | 0.00 | 0.48 | 0.00 | 60 | 1015.2 |
| 20260904165935 | 87 | 276 | 4.0 | 14.0 | 0.00 | 0.48 | 0.00 | 61 | 1015.2 |
| 20260904165434 | 87 | 234 | 3.0 | 14.0 | 0.00 | 0.48 | 0.00 | 61 | 1015.2 |
| 20260904164936 | 87 | 326 | 3.0 | 14.0 | 0.00 | 0.48 | 0.00 | 61 | 1015.4 |
| 20260904164436 | 87 | 279 | 3.0 | 15.0 | 0.00 | 0.48 | 0.00 | 61 | 1015.4 |
| 20260904163936 | 87 | 210 | 3.0 | 15.0 | 0.00 | 0.48 | 0.00 | 63 | 1015.4 |
| 20260904163437 | 87 | 273 | 2.0 | 11.0 | 0.00 | 0.48 | 0.00 | 62 | 1015.5 |
| 20260904162937 | 87 | 204 | 3.0 | 7.0 | 0.00 | 0.48 | 0.00 | 62 | 1015.5 |
| 20260904162726 | 87 | 273 | 2.0 | 12.0 | 0.00 | 0.48 | 0.00 | 62 | 1015.7 |
| 20260904162227 | 86 | 205 | 2.0 | 12.0 | 0.00 | 0.48 | 0.00 | 63 | 1015.8 |
| 20260904161431 | 86 | 18 | 2.0 | 12.0 | 0.00 | 0.48 | 0.00 | 64 | 1015.9 |
| 20260904160930 | 85 | 326 | 2.0 | 16.0 | 0.00 | 0.48 | 0.00 | 64 | 1016.0 |
| 20260904160430 | 86 | 281 | 2.0 | 16.0 | 0.00 | 0.48 | 0.00 | 63 | 1016.0 |
| 20260904155929 | 85 | 296 | 2.0 | 8.0 | 0.00 | 0.48 | 0.00 | 67 | 1015.9 |
| 20260904155431 | 85 | 241 | 2.0 | 9.0 | 0.00 | 0.48 | 0.00 | 66 | 1015.9 |
| 20260904155023 | 84 | 39 | 2.0 | 12.0 | 0.00 | 0.48 | 0.00 | 68 | 1015.9 |
| 20260904155005 | 84 | 41 | 2.0 | 9.0 | 0.00 | 0.48 | 0.00 | 68 | 1015.8 |
| 20260904153931 | 83 | 296 | 3.0 | 14.0 | 0.00 | 0.48 | 0.00 | 71 | 1015.9 |
| 20260904153430 | 82 | 256 | 3.0 | 14.0 | 0.00 | 0.48 | 0.00 | 71 | 1015.9 |
| 20260904152929 | 81 | 326 | 3.0 | 11.0 | 0.00 | 0.48 | 0.00 | 73 | 1015.9 |
| 20260904152430 | 79 | 258 | 2.0 | 11.0 | 0.00 | 0.48 | 0.00 | 78 | 1015.9 |
| 20260904151929 | 79 | 326 | 2.0 | 11.0 | 0.00 | 0.48 | 0.00 | 79 | 1015.9 |
| 20260904151430 | 78 | 166 | 2.0 | 7.0 | 0.00 | 0.48 | 0.00 | 81 | 1015.9 |
| 20260904151227 | 77 | 41 | 3.0 | 14.0 | 0.00 | 0.48 | 0.00 | 83 | 1015.9 |
| 20260904150429 | 77 | 129 | 3.0 | 14.0 | 0.00 | 0.48 | 0.00 | 85 | 1015.9 |
| 20260904150221 | 76 | 303 | 3.0 | 16.0 | 0.00 | 0.48 | 0.00 | 90 | 1016.2 |
| 20260904150216 | 75 | 100 | 3.0 | 11.0 | 0.00 | 0.48 | 0.00 | 91 | 1016.4 |
| 20260904150133 | 76 | 222 | 2.0 | 7.0 | 0.00 | 0.48 | 0.00 | 88 | 1016.1 |
| 20260904145550 | 76 | 301 | 3.0 | 16.0 | 0.00 | 0.48 | 0.00 | 89 | 1016.2 |
| 20260904143930 | 75 | 205 | 3.0 | 11.0 | 0.00 | 0.48 | 0.00 | 92 | 1016.2 |
| 20260904143432 | 74 | 251 | 3.0 | 11.0 | 0.00 | 0.48 | 0.00 | 93 | 1016.2 |
| 20260904142932 | 74 | 271 | 3.0 | 11.0 | 0.00 | 0.48 | 0.00 | 94 | 1016.1 |
| 20260904142429 | 74 | 11 | 2.0 | 8.0 | 0.00 | 0.48 | 0.00 | 94 | 1016.2 |
| 20260904141929 | 74 | 273 | 2.0 | 12.0 | 0.00 | 0.48 | 0.00 | 95 | 1016.1 |
| 20260904141431 | 73 | 305 | 4.0 | 15.0 | 0.00 | 0.48 | 0.00 | 95 | 1016.1 |
| 20260904140931 | 73 | 229 | 4.0 | 15.0 | 0.00 | 0.48 | 0.00 | 95 | 1016.1 |
| 20260904140429 | 73 | 251 | 4.0 | 14.0 | 0.00 | 0.48 | 0.00 | 95 | 1016.1 |
| 20260904135932 | 73 | 203 | 3.0 | 12.0 | 0.00 | 0.48 | 0.00 | 95 | 1016.2 |
| 20260904135429 | 73 | 268 | 2.0 | 8.0 | 0.00 | 0.48 | 0.00 | 96 | 1016.2 |
| 20260904134930 | 73 | 286 | 2.0 | 8.0 | 0.00 | 0.48 | 0.00 | 96 | 1016.1 |
| 20260904134724 | 72 | 234 | 2.0 | 7.0 | 0.00 | 0.48 | 0.00 | 96 | 1016.1 |
| 20260904133931 | 72 | 117 | 1.0 | 5.0 | 0.00 | 0.48 | 0.00 | 95 | 1016.1 |
| 20260904133728 | 72 | 205 | 1.0 | 5.0 | 0.00 | 0.48 | 0.00 | 95 | 1015.9 |
| 20260904132931 | 72 | 234 | 1.0 | 5.0 | 0.00 | 0.48 | 0.00 | 95 | 1015.8 |
| 20260904132429 | 72 | 296 | 1.0 | 5.0 | 0.00 | 0.48 | 0.00 | 95 | 1015.9 |
| 20260904132233 | 72 | 171 | 1.0 | 5.0 | 0.00 | 0.48 | 0.00 | 95 | 1015.9 |
| 20260904131724 | 72 | 260 | 1.0 | 5.0 | 0.00 | 0.48 | 0.00 | 95 | 1015.9 |
| 20260904130931 | 72 | 125 | 1.0 | 5.0 | 0.00 | 0.48 | 0.00 | 95 | 1015.9 |
| 20260904130432 | 72 | 205 | 2.0 | 5.0 | 0.00 | 0.48 | 0.00 | 95 | 1015.9 |
| 20260904125932 | 72 | 188 | 2.0 | 4.0 | 0.00 | 0.48 | 0.00 | 95 | 1016.0 |
| 20260904125432 | 72 | 178 | 1.0 | 4.0 | 0.00 | 0.48 | 0.00 | 95 | 1016.0 |
| 20260904124930 | 72 | 162 | 2.0 | 4.0 | 0.00 | 0.48 | 0.00 | 95 | 1016.1 |
| 20260904124432 | 72 | 116 | 1.0 | 4.0 | 0.00 | 0.48 | 0.00 | 96 | 1016.1 |
| 20260904123931 | 72 | 187 | 1.0 | 4.0 | 0.00 | 0.48 | 0.00 | 95 | 1016.2 |
| 20260904123431 | 71 | 143 | 1.0 | 4.0 | 0.00 | 0.48 | 0.00 | 95 | 1016.0 |
| 20260904122924 | 71 | 246 | 1.0 | 4.0 | 0.00 | 0.48 | 0.00 | 95 | 1016.1 |
| 20260904122419 | 71 | 143 | 1.0 | 3.0 | 0.00 | 0.48 | 0.00 | 95 | 1015.9 |
| 20260904121913 | 71 | 171 | 1.0 | 3.0 | 0.00 | 0.48 | 0.00 | 95 | 1015.8 |
| 20260904121407 | 71 | 143 | 1.0 | 3.0 | 0.00 | 0.48 | 0.00 | 95 | 1015.8 |
| 20260904120907 | 71 | 155 | 1.0 | 4.0 | 0.00 | 0.48 | 0.00 | 95 | 1015.9 |
| 20260904120407 | 71 | 234 | 1.0 | 4.0 | 0.00 | 0.48 | 0.00 | 95 | 1015.8 |
| 20260904120206 | 71 | 125 | 1.0 | 3.0 | 0.00 | 0.48 | 0.00 | 95 | 1015.8 |
| 20260904115406 | 71 | 160 | 1.0 | 3.0 | 0.00 | 0.48 | 0.00 | 95 | 1015.8 |
| 20260904115202 | 71 | 171 | 1.0 | 3.0 | 0.00 | 0.48 | 0.00 | 95 | 1015.8 |
| 20260904114403 | 71 | 162 | 1.0 | 3.0 | 0.00 | 0.48 | 0.00 | 95 | 1015.9 |
| 20260904113904 | 71 | 234 | 0.0 | 1.0 | 0.00 | 0.48 | 0.00 | 95 | 1016.0 |
| 20260904113659 | 70 | 11 | 0.0 | 3.0 | 0.00 | 0.48 | 0.00 | 95 | 1015.9 |
| 20260904113249 | 71 | 279 | 0.0 | 1.0 | 0.00 | 0.48 | 0.00 | 95 | 1015.9 |
| 20260904112939 | 71 | 234 | 0.0 | 3.0 | 0.00 | 0.48 | 0.00 | 95 | 1015.9 |
| 20260904111903 | 71 | 305 | 0.0 | 3.0 | 0.00 | 0.48 | 0.00 | 95 | 1015.8 |
| 20260904111403 | 71 | 251 | 0.0 | 3.0 | 0.00 | 0.48 | 0.00 | 95 | 1015.8 |
| 20260904110902 | 70 | 171 | 1.0 | 3.0 | 0.00 | 0.48 | 0.00 | 95 | 1015.9 |
| 20260904110402 | 70 | 215 | 1.0 | 3.0 | 0.00 | 0.48 | 0.00 | 95 | 1015.7 |
| 20260904105902 | 71 | 132 | 1.0 | 3.0 | 0.00 | 0.48 | 0.00 | 95 | 1015.6 |
| 20260904105402 | 71 | 198 | 1.0 | 3.0 | 0.00 | 0.48 | 0.00 | 95 | 1015.8 |
| 20260904104903 | 71 | 198 | 0.0 | 3.0 | 0.00 | 0.48 | 0.00 | 95 | 1015.6 |
| 20260904104403 | 71 | 116 | 0.0 | 1.0 | 0.00 | 0.48 | 0.00 | 95 | 1015.5 |
| 20260904103903 | 71 | 143 | 0.0 | 3.0 | 0.00 | 0.48 | 0.00 | 95 | 1015.6 |
| 20260904103651 | 71 | 279 | 1.0 | 3.0 | 0.00 | 0.48 | 0.00 | 95 | 1015.6 |
| 20260904102904 | 71 | 143 | 1.0 | 3.0 | 0.00 | 0.48 | 0.00 | 95 | 1015.5 |
| 20260904102650 | 71 | 143 | 1.0 | 3.0 | 0.00 | 0.48 | 0.00 | 95 | 1015.4 |
| 20260904101904 | 71 | 234 | 1.0 | 3.0 | 0.00 | 0.48 | 0.00 | 95 | 1015.2 |
| 20260904101741 | 71 | 121 | 1.0 | 3.0 | 0.00 | 0.48 | 0.00 | 95 | 1015.3 |
| 20260904101432 | 71 | 234 | 1.0 | 3.0 | 0.00 | 0.48 | 0.00 | 95 | 1015.2 |
| 20260904100402 | 71 | 11 | 1.0 | 4.0 | 0.00 | 0.48 | 0.00 | 95 | 1015.3 |
| 20260904095903 | 71 | 0 | 1.0 | 5.0 | 0.00 | 0.48 | 0.00 | 95 | 1015.4 |
| 20260904095402 | 71 | 312 | 2.0 | 5.0 | 0.00 | 0.48 | 0.00 | 95 | 1015.2 |
| 20260904094903 | 71 | 326 | 1.0 | 4.0 | 0.00 | 0.48 | 0.00 | 95 | 1015.1 |
| 20260904094403 | 71 | 348 | 1.0 | 4.0 | 0.00 | 0.48 | 0.00 | 95 | 1015.3 |
| 20260904093901 | 70 | 11 | 0.0 | 3.0 | 0.00 | 0.48 | 0.00 | 94 | 1014.8 |
| 20260904093402 | 70 | 54 | 0.0 | 3.0 | 0.00 | 0.48 | 0.00 | 94 | 1014.5 |
| 20260904092902 | 70 | 187 | 0.0 | 1.0 | 0.00 | 0.48 | 0.00 | 94 | 1014.5 |
| 20260904092402 | 70 | 326 | 0.0 | 1.0 | 0.00 | 0.48 | 0.00 | 94 | 1014.5 |
| 20260904091858 | 70 | 234 | 0.0 | 3.0 | 0.00 | 0.48 | 0.00 | 94 | 1014.4 |
| 20260904091349 | 70 | 11 | 1.0 | 3.0 | 0.00 | 0.48 | 0.00 | 94 | 1014.2 |
| 20260904090843 | 70 | 143 | 0.0 | 1.0 | 0.00 | 0.48 | 0.00 | 94 | 1014.4 |
| 20260904090338 | 70 | 54 | 0.0 | 1.0 | 0.00 | 0.48 | 0.00 | 94 | 1014.5 |
| 20260904090128 | 70 | 11 | 0.0 | 3.0 | 0.00 | 0.48 | 0.00 | 94 | 1014.4 |
| 20260904085333 | 70 | 143 | 0.0 | 3.0 | 0.00 | 0.48 | 0.00 | 94 | 1014.5 |
| 20260904084834 | 70 | 143 | 0.0 | 3.0 | 0.00 | 0.48 | 0.00 | 94 | 1014.6 |
| 20260904084333 | 70 | 143 | 1.0 | 1.0 | 0.00 | 0.48 | 0.00 | 94 | 1014.7 |
| 20260904083833 | 70 | 188 | 0.0 | 1.0 | 0.00 | 0.48 | 0.00 | 94 | 1014.6 |
| 20260904083333 | 70 | 326 | 1.0 | 3.0 | 0.00 | 0.48 | 0.00 | 94 | 1014.7 |
| 20260904082834 | 70 | 143 | 1.0 | 3.0 | 0.00 | 0.48 | 0.00 | 94 | 1014.7 |
| 20260904082331 | 71 | 143 | 0.0 | 1.0 | 0.00 | 0.48 | 0.00 | 94 | 1014.6 |
| 20260904081831 | 71 | 234 | 0.0 | 1.0 | 0.00 | 0.48 | 0.00 | 94 | 1014.7 |
| 20260904081622 | 71 | 54 | 0.0 | 1.0 | 0.00 | 0.48 | 0.00 | 94 | 1014.7 |
| 20260904080830 | 71 | 261 | 0.0 | 1.0 | 0.00 | 0.48 | 0.00 | 94 | 1014.9 |
| 20260904080330 | 71 | 188 | 0.0 | 1.0 | 0.00 | 0.48 | 0.00 | 94 | 1014.8 |
| 20260904075829 | 71 | 100 | 0.0 | 1.0 | 0.00 | 0.48 | 0.00 | 94 | 1014.8 |
| 20260904075623 | 71 | 279 | 0.0 | 1.0 | 0.00 | 0.48 | 0.00 | 94 | 1014.9 |
| 20260904074830 | 71 | 279 | 0.0 | 1.0 | 0.00 | 0.48 | 0.00 | 94 | 1015.0 |
| 20260904074331 | 71 | 100 | 0.0 | 1.0 | 0.00 | 0.48 | 0.00 | 94 | 1015.0 |
| 20260904073829 | 71 | 143 | 0.0 | 1.0 | 0.00 | 0.48 | 0.00 | 94 | 1015.1 |
| 20260904073331 | 71 | 54 | 0.0 | 1.0 | 0.00 | 0.48 | 0.00 | 94 | 1015.2 |
| 20260904072828 | 71 | 11 | 0.0 | 1.0 | 0.00 | 0.48 | 0.00 | 94 | 1015.3 |
| 20260904072331 | 71 | 100 | 0.0 | 1.0 | 0.00 | 0.48 | 0.00 | 93 | 1015.2 |
| 20260904071828 | 71 | 171 | 1.0 | 3.0 | 0.00 | 0.48 | 0.00 | 93 | 1015.3 |
| 20260904071328 | 71 | 143 | 1.0 | 4.0 | 0.00 | 0.48 | 0.00 | 93 | 1015.2 |
| 20260904070829 | 71 | 171 | 1.0 | 4.0 | 0.00 | 0.48 | 0.00 | 93 | 1015.2 |
| 20260904070329 | 71 | 198 | 1.0 | 3.0 | 0.00 | 0.48 | 0.00 | 93 | 1015.2 |
| 20260904065914 | 71 | 162 | 0.0 | 1.0 | 0.00 | 0.48 | 0.00 | 93 | 1014.9 |
| 20260904065858 | 71 | 188 | 1.0 | 3.0 | 0.00 | 0.48 | 0.00 | 93 | 1015.2 |
| 20260904064827 | 71 | 234 | 0.0 | 1.0 | 0.00 | 0.48 | 0.00 | 93 | 1014.7 |